Wind_Speed
4 5 5 5 7 10 12 13 15 14 13 12 13 13 14 14 15 15 15 14 13 13 14 14 15 15 16 17 19 21 21 22 24 23 22 22 24 26 26 23 21 17 13 13 14 13 12 14 15 15 13 13 13 13 14 16 14 13 11 10 11 12 11
4 5 6 7 10 13 16 16 16 16 16 15 14 15 15 15 16 16 15 15 15 14 14 15 14 14 15 15 18 20 20 20 22 21 20 20 21 22 23 24 24 22 17 13 13 14 12 12 14 15 15 14 14 14 16 16 14 13 12 11 11 11 11
5 5 7 10 13 16 18 18 18 18 19 19 17 16 16 16 17 16 16 17 17 16 16 15 13 13 14 15 17 19 20 19 18 20 19 18 18 18 19 22 24 23 19 15 16 15 13 12 13 14 16 16 16 16 16 14 13 14 13 13 13 12 12
5 6 10 14 16 17 18 20 21 21 21 21 19 17 17 18 17 16 16 18 18 18 17 17 16 14 14 15 17 20 19 18 18 20 21 20 19 18 18 19 21 22 20 17 16 15 14 14 13 13 15 15 15 15 16 14 14 14 13 13 13 12 11
7 8 13 16 17 19 20 21 23 24 23 22 22 21 19 19 17 16 18 19 19 19 18 18 17 16 15 15 18 20 19 18 18 20 21 20 18 17 16 15 16 19 18 15 14 14 15 15 13 13 14 15 14 13 15 15 15 13 13 13 11 10 10
11 11 14 17 18 19 21 23 25 26 25 25 25 23 21 20 19 18 19 20 21 20 18 18 17 17 17 17 18 20 19 18 18 19 19 19 18 17 15 14 15 16 16 15 14 14 15 14 13 13 15 16 15 13 14 16 15 12 12 12 11 11 10
13 12 14 16 17 18 20 23 25 27 28 27 26 24 22 21 20 19 20 21 22 21 19 18 18 18 18 18 18 20 19 18 18 18 18 18 18 18 16 15 16 15 15 16 16 16 15 15 14 15 17 18 16 13 14 15 15 14 13 13 13 11 10
13 13 13 14 16 17 18 20 23 25 26 27 27 25 23 21 20 19 19 20 21 22 21 19 18 18 18 18 18 19 19 19 18 18 19 19 19 19 18 16 17 17 16 17 18 17 15 14 14 16 19 20 18 15 15 15 15 15 15 15 15 12 9
14 15 14 14 15 16 18 20 23 24 25 27 28 28 25 24 22 19 18 19 20 22 23 21 19 19 19 19 19 20 19 19 18 18 19 20 19 18 17 17 18 18 17 18 18 17 16 15 15 16 19 22 21 19 18 17 17 17 16 17 17 13 9
12 12 12 13 14 16 18 21 23 25 26 27 29 29 28 27 25 20 19 20 21 23 24 22 20 20 20 19 20 20 20 20 19 17 18 19 19 18 17 17 18 19 18 18 18 17 16 17 18 18 18 20 21 21 21 20 19 19 18 18 19 15 11
10 11 12 15 17 18 19 21 23 25 26 27 29 29 28 28 26 21 19 21 22 24 24 23 21 20 20 20 19 20 21 20 19 18 18 18 19 19 17 17 19 20 19 19 19 19 17 17 19 18 17 20 21 20 21 21 20 20 19 19 19 16 13
9 10 12 15 17 18 19 21 22 25 26 27 27 28 27 27 24 19 18 21 23 23 24 23 21 20 21 20 19 20 20 19 18 18 18 18 18 18 18 19 20 21 21 20 20 20 18 16 16 17 18 21 20 17 19 20 20 21 20 20 19 14 14
11 11 12 14 16 16 19 21 22 23 25 26 26 27 26 24 22 18 17 21 23 22 23 22 21 20 21 20 18 20 20 19 17 17 17 17 17 18 18 19 20 21 22 22 22 21 20 17 17 17 17 19 19 18 19 20 21 22 21 21 18 15 18
12 13 14 15 16 16 18 21 22 22 23 24 25 24 22 20 18 15 15 20 22 22 22 22 21 21 21 19 18 20 20 19 17 16 16 16 16 17 17 18 19 20 21 22 23 22 20 18 18 19 18 19 19 19 19 19 21 23 22 22 20 18 19
13 14 16 16 16 16 18 20 21 22 22 23 22 20 18 18 16 14 14 18 21 21 20 20 19 18 18 17 18 18 18 18 17 16 16 16 16 17 18 19 19 20 22 22 23 23 21 19 19 20 19 19 19 18 18 18 22 24 23 23 22 20 18
14 14 15 16 15 15 16 17 19 20 21 20 19 16 14 15 14 13 14 16 18 18 17 19 18 15 14 15 16 17 17 17 16 16 16 16 16 17 18 20 19 21 23 23 23 23 21 21 20 20 20 20 19 19 17 18 21 23 23 23 21 20 19
13 13 13 15 15 14 15 16 17 18 18 18 16 14 12 12 11 10 11 12 13 14 15 17 17 15 13 13 14 13 14 14 14 15 15 14 15 16 18 19 19 20 23 23 23 22 22 24 23 21 21 20 20 19 17 16 18 21 23 23 21 19 19
15 16 16 17 16 14 14 15 17 17 17 16 15 12 11 10 9 9 9 9 9 11 12 12 13 14 12 12 13 13 13 14 14 14 13 13 15 16 17 18 18 19 22 22 21 22 23 25 23 22 20 18 18 19 18 19 19 20 20 21 21 19 17
16 17 17 18 17 16 16 16 17 17 16 15 14 12 11 9 8 8 8 6 6 9 10 10 11 13 13 12 13 14 14 14 14 14 14 14 16 16 16 17 18 19 20 20 20 21 22 20 20 21 18 15 16 17 18 20 22 21 20 19 20 19 17
16 15 16 17 17 17 17 17 17 16 15 15 13 12 11 10 8 8 7 5 5 7 10 12 12 12 12 11 12 14 14 15 15 14 14 15 16 16 16 17 17 17 19 19 19 21 21 19 18 18 17 16 16 15 17 20 19 20 20 19 18 18 16
15 13 14 16 16 17 16 16 16 16 15 14 13 11 11 11 9 7 7 6 5 6 9 12 12 10 10 9 11 13 13 14 15 15 14 14 16 16 16 17 16 15 18 19 19 20 20 19 19 18 17 18 17 16 19 20 17 18 20 19 17 16 16
15 13 12 13 15 16 16 14 13 13 14 14 13 12 11 10 8 6 6 6 6 6 8 11 12 11 9 8 9 11 12 12 13 14 14 13 14 15 16 16 15 14 17 18 18 19 18 16 17 17 16 17 17 18 20 21 19 18 19 19 18 17 17
16 14 12 12 14 15 16 14 12 11 11 12 12 12 11 9 7 5 6 6 5 6 8 11 11 11 10 10 10 11 12 12 12 13 14 13 14 15 15 16 15 14 15 16 17 18 16 14 14 14 15 15 16 18 21 22 21 19 18 18 17 17 18
16 16 15 14 15 15 16 15 13 10 10 9 10 11 10 8 6 5 4 3 4 5 8 10 10 8 8 11 11 11 13 13 14 15 15 14 15 16 16 15 15 14 13 16 17 16 15 14 14 14 15 16 18 20 20 21 22 21 20 19 17 17 17
15 16 16 15 14 15 15 15 14 11 8 8 9 9 7 7 6 5 2 4 7 7 7 7 8 6 6 7 8 9 10 11 12 13 14 15 16 16 15 14 13 13 13 16 17 16 15 15 14 15 16 16 18 19 19 18 20 22 21 20 19 19 18
16 16 15 13 13 14 15 16 15 14 12 10 10 9 8 8 8 7 4 3 6 7 7 6 6 6 6 5 5 7 7 6 8 10 12 14 14 14 13 11 11 13 15 16 16 15 15 15 15 15 16 16 17 17 17 18 19 20 20 19 18 18 18
16 16 14 12 12 14 16 17 17 17 16 14 13 13 12 11 10 9 6 5 5 7 7 6 7 7 7 7 7 7 6 4 6 9 10 9 10 11 11 9 11 13 14 15 15 14 14 16 16 17 17 17 17 16 15 15 15 17 18 18 17 18 18
15 15 13 12 12 14 16 18 19 19 19 17 17 18 17 15 13 10 6 4 6 7 7 7 8 9 8 8 8 7 5 2 2 5 7 7 9 10 11 10 12 13 14 14 14 15 17 18 17 17 17 17 16 15 13 11 11 12 14 15 17 19 19
13 14 13 13 13 14 16 18 20 21 20 19 20 22 21 19 16 13 10 5 2 3 4 7 10 10 9 8 6 5 3 3 2 3 6 7 8 11 12 12 11 12 13 14 15 15 17 18 17 16 16 16 16 15 14 12 10 9 9 11 14 16 16
14 15 14 13 13 15 17 18 19 20 20 20 21 22 23 22 20 18 16 12 8 6 3 6 11 10 9 8 6 4 4 4 4 5 7 8 8 10 13 12 13 15 15 15 16 15 15 16 15 14 14 15 14 14 14 14 12 11 10 11 13 13 13
13 14 14 13 13 15 17 18 19 20 20 19 19 20 21 22 21 20 18 16 13 11 9 11 11 8 6 5 4 7 6 6 10 10 9 8 7 10 13 13 14 15 16 18 20 18 15 14 13 12 12 12 12 12 13 13 13 12 11 12 12 12 12
13 13 13 13 13 14 15 16 17 19 19 19 19 20 21 21 21 20 19 17 16 14 13 14 11 8 10 9 8 9 4 4 8 10 8 6 6 10 16 16 14 15 17 19 20 19 16 14 13 12 12 12 12 12 13 12 12 12 12 12 12 12 12
13 13 13 13 11 12 13 14 15 16 17 18 19 19 20 20 20 21 19 17 15 15 15 14 10 8 12 13 11 10 5 5 8 8 6 5 7 11 16 17 16 16 17 17 16 15 15 15 15 14 13 13 12 12 12 12 11 10 10 10 10 9 9
15 15 15 13 10 10 12 12 13 15 16 16 16 16 18 17 17 19 20 17 15 14 14 14 11 9 10 12 12 12 11 12 13 11 8 6 8 11 15 18 18 16 14 14 13 13 13 14 15 13 12 12 12 11 11 12 10 9 8 7 6 5 5
18 17 16 14 12 11 12 13 14 15 15 15 14 15 15 15 15 17 18 18 17 16 14 13 13 12 12 13 13 14 16 17 15 11 9 8 9 11 13 15 16 14 12 11 11 12 14 16 16 14 12 12 11 10 10 11 11 10 8 6 4 3 2
23 21 18 15 13 13 13 15 16 17 16 15 15 16 15 15 15 17 17 18 19 19 18 17 16 15 15 16 16 17 17 17 14 10 8 8 9 10 9 9 10 10 10 9 7 9 12 14 14 13 12 11 10 9 9 10 10 8 5 4 4 6 5
28 27 23 19 17 17 17 17 19 20 19 18 18 19 18 17 17 19 21 21 22 22 21 21 21 19 17 17 17 17 16 15 13 9 7 8 10 10 8 7 6 6 6 5 5 4 6 8 10 11 12 12 12 11 9 9 8 6 6 8 9 10 7
Wind_Direction
229 251 259 261 264 266 263 257 254 254 252 249 250 253 255 256 258 259 255 252 250 246 243 240 241 244 244 243 239 237 236 234 234 236 234 228 220 219 220 218 219 218 215 212 206 202 196 190 200 210 212 214 214 211 210 206 203 205 200 192 192 198 200
250 257 256 256 261 265 265 261 259 258 255 253 253 255 257 255 258 261 255 250 251 250 249 247 245 242 238 237 233 231 231 232 235 235 232 228 222 222 222 219 218 217 218 217 207 206 202 190 194 202 199 199 202 201 203 204 199 196 193 189 188 187 192
253 253 256 252 255 263 267 268 269 268 265 262 261 261 259 256 258 261 255 250 252 255 253 247 245 242 236 230 223 225 228 230 233 232 228 224 220 222 222 217 215 212 213 215 211 206 203 197 192 196 198 196 194 193 196 199 190 186 188 187 183 180 187
265 257 255 253 256 263 268 273 276 274 272 270 268 266 263 260 259 259 257 253 252 252 251 249 247 243 238 230 219 216 220 223 224 225 227 227 224 222 217 216 216 211 208 212 213 207 204 204 195 191 198 199 198 195 191 187 182 182 186 185 182 178 179
283 265 260 259 263 267 269 273 274 274 274 272 270 268 266 265 265 263 259 257 254 251 250 249 246 239 235 231 224 218 217 218 218 218 222 224 221 220 216 213 213 210 211 215 220 219 212 209 206 200 196 194 196 196 189 180 178 185 183 177 178 173 170
285 276 273 272 271 271 274 276 277 279 278 276 274 270 266 267 271 272 267 260 258 256 253 248 242 237 232 226 221 218 215 216 214 212 215 216 215 217 218 210 205 209 216 218 222 225 212 204 208 202 192 190 188 188 189 182 178 185 182 172 172 175 179
279 277 279 283 283 280 281 282 284 285 284 282 278 272 267 265 266 268 268 264 259 258 255 247 240 238 233 225 218 214 212 213 212 212 214 213 211 213 213 209 206 209 213 214 220 223 211 202 204 195 186 187 186 180 185 184 179 182 179 171 173 185 191
272 271 274 282 288 290 290 289 289 289 288 285 281 277 273 265 259 259 264 264 259 255 254 247 241 238 232 226 219 214 213 214 214 214 212 208 208 211 212 212 211 209 211 215 217 217 212 204 203 198 186 183 183 176 178 181 179 181 177 168 174 192 193
274 273 274 276 282 289 292 292 291 292 291 288 284 283 278 268 261 262 266 266 261 255 254 248 242 238 232 226 219 216 214 213 212 211 208 207 208 211 213 213 214 213 213 215 212 211 212 203 202 206 193 185 182 175 176 180 182 182 175 168 174 188 192
290 292 293 294 293 291 291 293 294 294 294 292 289 287 282 272 266 264 265 266 262 257 254 249 243 236 231 224 218 217 214 210 208 207 207 207 209 212 213 213 216 215 213 212 208 207 209 201 201 209 201 190 185 177 175 180 185 183 175 172 178 184 192
309 313 312 307 301 296 295 296 297 299 299 296 291 287 283 275 267 260 259 261 260 257 254 250 242 233 228 224 218 215 215 214 211 206 205 206 209 214 215 215 216 214 212 214 210 205 206 202 201 205 201 195 190 183 179 180 185 185 175 175 187 189 187
296 299 302 299 295 294 298 300 302 306 307 303 294 287 284 281 272 263 260 259 256 254 252 249 242 232 226 222 217 213 216 219 214 205 202 204 208 211 213 216 216 212 213 217 214 208 206 205 204 201 197 197 197 193 188 184 185 184 175 177 191 193 180
282 279 284 288 291 297 302 305 309 312 313 312 305 294 290 286 278 270 267 264 260 256 252 248 243 232 224 220 216 214 214 214 212 209 205 205 208 211 213 216 215 213 215 216 215 213 207 203 204 203 200 200 201 199 199 195 184 176 176 180 185 183 178
299 290 286 286 292 300 306 308 312 315 316 316 311 302 296 290 281 277 278 277 272 264 256 249 242 232 225 221 217 214 212 209 208 211 212 211 214 215 213 213 212 211 212 213 215 214 208 203 202 203 204 204 201 199 200 198 184 175 177 178 173 176 183
311 304 302 304 304 305 306 309 314 318 320 321 316 309 307 306 303 300 299 294 282 269 258 252 246 234 225 221 217 215 212 208 205 205 211 213 214 214 210 210 212 212 212 214 215 212 208 209 206 202 206 210 205 199 197 194 187 181 180 178 173 176 185
311 313 317 320 316 310 309 312 317 321 323 324 322 319 320 323 322 319 314 305 291 274 260 253 247 237 223 216 216 215 213 209 204 204 211 212 212 212 209 210 214 214 213 213 212 209 210 212 209 204 207 209 201 192 191 194 194 187 179 176 174 177 182
330 337 335 332 328 320 315 316 321 324 325 328 327 324 326 327 325 322 317 308 288 269 259 251 243 237 232 222 215 213 212 210 208 210 215 215 214 213 209 211 212 211 212 211 208 209 210 210 209 207 207 205 195 186 180 187 195 186 175 168 168 179 186
354 355 350 349 348 341 331 326 327 327 329 334 335 333 332 327 317 307 305 305 283 258 252 247 235 230 231 226 225 225 221 218 215 215 218 217 216 213 208 210 210 207 210 210 208 210 210 209 208 206 206 203 196 188 177 177 185 184 178 171 169 181 184
2 360 357 357 356 352 343 336 333 332 332 334 335 337 337 332 319 301 290 291 284 261 248 241 235 231 225 220 229 234 229 224 221 220 221 219 216 212 207 207 205 204 207 209 210 211 213 214 206 197 195 189 182 183 180 181 185 184 180 175 175 184 181
5 5 1 357 354 354 350 343 340 338 335 334 333 331 331 330 326 311 295 288 286 267 244 238 242 239 230 224 228 231 228 225 221 219 218 216 212 211 210 208 204 202 206 209 208 206 210 219 212 196 192 188 180 179 178 178 180 179 172 171 182 190 183
6 7 5 359 355 353 349 345 346 346 343 339 334 328 328 329 325 314 305 299 291 269 241 236 235 229 225 226 226 227 227 224 218 217 217 213 211 212 212 212 208 206 208 209 209 205 207 216 214 204 198 192 187 181 171 164 168 173 170 172 185 186 179
4 360 359 360 356 350 346 344 344 346 349 349 341 334 332 331 326 315 306 299 285 266 243 233 225 216 217 226 228 226 223 215 213 218 218 214 215 217 216 214 213 211 208 205 207 207 206 208 210 207 200 191 185 179 170 162 165 174 175 177 181 177 176
3 359 357 357 354 353 355 352 342 335 343 352 349 345 345 343 337 320 303 295 278 252 235 230 228 221 211 210 215 222 221 213 213 220 217 214 221 225 223 217 212 209 205 201 200 201 199 200 205 206 202 193 185 181 176 168 166 172 180 182 180 178 180
8 7 6 5 3 4 6 4 355 341 337 348 354 354 0 1 348 329 303 266 225 215 218 224 231 225 201 193 196 206 213 209 207 210 210 213 222 226 222 215 209 207 207 203 197 191 190 195 198 195 195 192 187 187 183 173 169 175 181 182 180 180 184
16 15 14 12 13 16 16 12 11 6 358 2 1 356 4 4 349 339 310 220 202 200 205 213 221 217 197 185 177 183 197 206 207 206 206 208 213 217 215 208 203 204 206 201 191 181 180 185 184 183 187 186 185 188 185 179 180 183 183 182 180 181 186
23 21 19 16 15 19 20 16 16 18 20 23 18 7 0 354 349 348 330 258 218 206 202 199 202 198 177 152 145 159 174 206 226 225 218 207 200 204 207 200 198 204 202 193 183 178 180 177 171 177 183 179 177 182 186 187 189 189 188 187 184 184 187
28 23 21 22 22 21 22 22 22 24 26 28 27 20 9 357 349 344 327 289 251 231 219 204 187 175 154 127 117 130 144 181 225 230 226 206 187 194 198 192 198 203 194 184 179 178 179 175 172 173 175 172 172 177 187 192 190 191 192 192 192 194 194
32 27 24 27 29 28 31 34 34 34 35 36 38 36 27 16 7 359 351 302 256 242 235 212 180 164 152 131 114 112 114 116 177 201 200 182 176 186 186 187 195 191 178 176 179 178 176 176 180 177 171 172 175 177 184 189 188 193 195 194 197 203 204
31 33 33 33 34 37 44 46 43 42 43 45 51 50 45 40 36 33 33 24 305 259 239 203 172 153 146 142 130 108 78 61 92 169 178 171 180 184 179 184 192 184 179 179 174 173 175 176 179 179 174 178 183 186 190 189 181 181 181 179 185 195 200
28 32 34 37 42 47 54 54 51 50 50 51 55 56 54 53 52 52 51 50 48 38 48 146 148 140 138 148 145 102 69 73 104 148 164 166 179 177 167 174 181 177 176 168 155 159 175 179 179 179 177 179 183 188 193 191 184 178 171 169 174 180 185
33 35 35 40 51 60 64 63 60 59 58 59 61 61 60 58 55 56 56 55 58 59 68 95 111 110 105 115 88 62 66 82 83 90 114 133 160 170 162 167 173 167 158 151 150 158 171 176 175 175 177 177 176 177 178 179 182 182 178 178 180 182 187
37 41 42 47 58 69 72 72 71 70 69 69 69 68 67 63 58 59 60 62 71 75 75 84 92 72 57 60 52 42 53 105 74 61 72 95 130 157 157 158 161 157 154 155 158 162 168 170 165 160 166 171 169 166 164 165 174 181 185 192 194 194 199
42 47 49 52 61 71 74 74 74 74 74 75 75 74 72 67 63 61 59 63 72 71 62 71 86 70 55 61 58 45 56 111 85 60 65 96 127 141 141 142 145 151 158 158 157 161 166 164 159 157 162 162 158 158 158 159 169 179 187 197 203 204 208
49 51 50 50 58 69 71 68 66 67 70 72 75 75 73 70 68 67 63 60 66 65 54 53 59 58 57 60 57 54 66 78 67 52 58 97 127 130 128 129 131 139 154 158 157 164 164 155 154 158 154 147 147 153 155 154 161 174 181 187 197 204 209
51 53 51 49 54 67 72 69 66 66 68 69 71 74 76 76 76 77 74 69 69 71 67 59 55 60 69 72 68 66 69 70 63 53 60 89 107 110 115 122 122 125 141 150 146 145 142 143 151 155 146 142 151 159 160 159 165 175 181 180 182 170 156
52 53 52 51 54 64 71 72 70 69 68 69 69 70 72 76 78 80 81 79 77 78 77 75 72 70 72 73 70 67 66 68 68 60 54 72 88 93 100 114 119 122 137 150 142 125 123 130 138 140 140 146 153 155 158 164 170 175 170 144 118 104 105
62 62 63 64 65 69 73 75 74 71 67 66 67 68 69 71 74 77 77 77 77 78 78 78 77 74 73 74 74 76 80 83 84 81 81 93 102 106 109 117 127 134 145 158 160 149 144 143 140 141 149 158 162 163 163 161 157 143 118 112 113 113 117
Height
1517 1518 1519 1520 1519 1518 1517 1517 1517 1517 1518 1518 1518 1518 1518 1518 1517 1518 1518 1517 1517 1517 1518 1518 1519 1519 1520 1521 1522 1523 1524 1526 1527 1528 1529 1531 1532 1534 1536 1537 1538 1539 1539 1540 1540 1541 1542 1543 1545 1546 1547 1548 1549 1550 1551 1552 1552 1553 1553 1553 1554 1554 1555
1516 1517 1518 1517 1516 1514 1513 1514 1515 1516 1517 1517 1517 1517 1516 1516 1515 1515 1515 1515 1515 1515 1515 1515 1516 1516 1517 1518 1519 1520 1522 1523 1525 1527 1528 1529 1531 1533 1534 1536 1536 1537 1538 1538 1539 1540 1541 1542 1543 1544 1545 1547 1548 1549 1550 1550 1551 1552 1553 1553 1554 1554 1555
1516 1516 1516 1514 1512 1512 1512 1513 1514 1515 1515 1515 1516 1515 1515 1514 1514 1514 1513 1513 1512 1512 1512 1512 1512 1513 1514 1515 1516 1518 1520 1521 1523 1526 1527 1528 1529 1531 1532 1533 1534 1535 1535 1536 1537 1538 1539 1540 1541 1542 1543 1545 1546 1547 1548 1549 1550 1551 1552 1553 1554 1554 1555
1515 1515 1514 1512 1511 1511 1511 1512 1512 1512 1513 1513 1513 1513 1513 1512 1512 1512 1512 1511 1510 1510 1509 1509 1510 1510 1511 1512 1514 1515 1518 1519 1521 1523 1526 1527 1528 1529 1530 1531 1532 1533 1534 1535 1536 1537 1538 1539 1540 1541 1542 1543 1544 1546 1547 1548 1549 1551 1551 1552 1553 1553 1554
1513 1513 1512 1510 1510 1510 1510 1510 1510 1510 1510 1510 1511 1511 1510 1511 1511 1511 1510 1510 1509 1508 1507 1507 1507 1508 1508 1510 1511 1513 1515 1517 1519 1521 1524 1525 1526 1527 1529 1529 1530 1531 1533 1534 1535 1536 1537 1538 1539 1540 1541 1542 1543 1544 1545 1547 1548 1549 1550 1551 1552 1552 1553
1512 1511 1510 1509 1509 1509 1509 1509 1508 1508 1508 1508 1508 1508 1508 1509 1510 1510 1509 1508 1507 1507 1506 1506 1506 1506 1506 1507 1509 1510 1512 1514 1516 1518 1520 1522 1524 1525 1527 1528 1529 1530 1531 1533 1534 1534 1535 1537 1538 1539 1540 1541 1542 1543 1544 1546 1547 1548 1549 1550 1551 1552 1553
1510 1510 1509 1508 1508 1508 1508 1507 1507 1506 1506 1505 1505 1505 1506 1507 1507 1507 1506 1506 1506 1506 1505 1504 1504 1504 1505 1506 1507 1508 1510 1511 1513 1515 1517 1518 1521 1523 1524 1526 1527 1528 1530 1532 1532 1533 1534 1536 1536 1537 1539 1540 1542 1542 1543 1545 1546 1547 1548 1549 1550 1551 1552
1509 1508 1508 1507 1507 1507 1507 1506 1505 1504 1503 1503 1502 1501 1503 1503 1504 1504 1504 1503 1503 1504 1504 1504 1503 1504 1504 1505 1506 1507 1508 1509 1510 1511 1513 1515 1517 1520 1522 1524 1525 1527 1528 1530 1531 1531 1533 1534 1535 1536 1537 1539 1540 1541 1543 1544 1545 1546 1547 1548 1550 1550 1550
1508 1507 1507 1507 1506 1506 1505 1504 1503 1502 1501 1500 1499 1499 1499 1499 1500 1502 1502 1502 1501 1502 1503 1502 1502 1502 1503 1504 1505 1506 1506 1506 1507 1508 1510 1512 1515 1517 1519 1521 1523 1524 1526 1527 1528 1530 1531 1533 1534 1535 1536 1537 1537 1539 1541 1543 1544 1545 1546 1548 1549 1549 1550
1506 1506 1506 1506 1505 1505 1504 1503 1501 1500 1499 1498 1497 1496 1496 1497 1498 1499 1499 1500 1500 1500 1500 1500 1500 1500 1501 1502 1503 1505 1505 1505 1506 1507 1508 1510 1512 1514 1516 1517 1519 1521 1523 1524 1526 1527 1529 1530 1532 1533 1534 1535 1536 1536 1539 1541 1542 1543 1545 1547 1548 1548 1549
1506 1506 1506 1505 1504 1503 1502 1501 1500 1499 1498 1496 1494 1494 1494 1494 1494 1495 1496 1497 1498 1498 1498 1498 1498 1498 1498 1500 1501 1503 1504 1504 1505 1505 1506 1508 1509 1511 1513 1514 1516 1518 1520 1521 1523 1525 1527 1528 1529 1531 1532 1533 1534 1535 1537 1539 1540 1542 1544 1546 1546 1547 1548
1505 1505 1505 1504 1503 1501 1500 1499 1498 1497 1496 1494 1492 1491 1491 1491 1492 1493 1494 1495 1495 1496 1496 1495 1496 1496 1496 1497 1499 1500 1502 1503 1503 1504 1505 1506 1507 1509 1510 1512 1514 1515 1517 1519 1521 1523 1525 1526 1527 1529 1531 1532 1533 1535 1536 1537 1538 1540 1543 1544 1544 1546 1547
1503 1503 1503 1502 1501 1500 1499 1497 1497 1496 1495 1493 1491 1489 1489 1489 1490 1491 1493 1493 1493 1494 1494 1494 1494 1494 1495 1495 1496 1498 1500 1501 1502 1502 1502 1504 1505 1507 1508 1510 1512 1513 1515 1517 1519 1521 1523 1525 1526 1528 1530 1531 1532 1534 1535 1536 1537 1539 1541 1543 1544 1545 1547
1502 1502 1501 1500 1499 1498 1498 1496 1496 1495 1493 1492 1490 1488 1487 1487 1488 1489 1491 1492 1491 1492 1493 1493 1492 1492 1492 1493 1494 1495 1497 1499 1500 1501 1501 1502 1503 1505 1506 1508 1510 1512 1514 1515 1517 1519 1521 1523 1525 1527 1528 1530 1531 1533 1533 1535 1537 1537 1539 1542 1544 1545 1546
1501 1500 1499 1499 1498 1497 1496 1495 1494 1493 1492 1490 1488 1487 1486 1486 1486 1487 1489 1490 1490 1491 1492 1492 1491 1490 1491 1492 1492 1493 1496 1498 1499 1500 1501 1501 1502 1504 1506 1507 1509 1511 1513 1514 1516 1518 1520 1522 1524 1526 1527 1528 1530 1531 1532 1534 1536 1536 1538 1540 1543 1545 1546
1500 1499 1498 1498 1497 1496 1495 1494 1493 1492 1491 1489 1487 1486 1485 1485 1485 1485 1485 1487 1488 1490 1490 1491 1491 1491 1490 1492 1492 1494 1495 1496 1498 1499 1500 1501 1502 1503 1505 1507 1509 1511 1512 1513 1515 1517 1519 1521 1522 1524 1526 1526 1528 1530 1531 1533 1534 1535 1537 1539 1542 1544 1546
1498 1498 1497 1497 1496 1495 1494 1493 1492 1491 1489 1488 1486 1486 1485 1485 1484 1484 1484 1484 1486 1487 1487 1488 1490 1491 1491 1493 1495 1496 1496 1496 1497 1499 1500 1500 1501 1503 1504 1506 1508 1510 1511 1513 1514 1516 1518 1519 1521 1523 1524 1524 1526 1529 1530 1532 1533 1535 1536 1538 1541 1543 1545
1498 1497 1497 1496 1495 1494 1493 1492 1491 1490 1488 1487 1486 1485 1485 1484 1483 1483 1483 1484 1484 1485 1485 1486 1489 1491 1492 1495 1496 1496 1497 1497 1498 1499 1499 1500 1501 1502 1504 1506 1508 1509 1511 1513 1514 1515 1517 1518 1520 1522 1523 1525 1527 1528 1529 1531 1533 1534 1535 1537 1540 1542 1544
1498 1497 1497 1496 1495 1494 1493 1492 1491 1489 1488 1486 1485 1485 1484 1483 1483 1482 1483 1483 1484 1484 1484 1485 1488 1490 1492 1494 1495 1496 1496 1497 1498 1498 1499 1499 1500 1502 1503 1505 1506 1508 1510 1511 1512 1515 1517 1517 1519 1521 1524 1526 1528 1528 1529 1531 1532 1533 1535 1537 1539 1541 1542
1499 1498 1497 1496 1495 1493 1492 1492 1490 1489 1488 1486 1485 1485 1484 1483 1483 1483 1483 1483 1483 1483 1483 1484 1486 1489 1491 1493 1494 1495 1496 1497 1497 1498 1498 1498 1500 1502 1503 1504 1506 1507 1508 1509 1512 1515 1517 1517 1518 1520 1523 1524 1525 1527 1529 1531 1532 1533 1535 1537 1539 1540 1542
1499 1498 1497 1496 1494 1493 1492 1491 1490 1489 1487 1486 1485 1484 1483 1483 1482 1482 1483 1483 1483 1483 1483 1484 1485 1488 1489 1491 1493 1494 1495 1496 1497 1498 1498 1498 1499 1501 1502 1504 1506 1507 1508 1509 1512 1514 1516 1516 1517 1519 1521 1523 1523 1525 1528 1530 1532 1533 1535 1537 1538 1539 1541
1499 1498 1497 1495 1494 1492 1491 1490 1490 1488 1487 1486 1485 1484 1483 1482 1482 1482 1482 1483 1483 1483 1483 1483 1485 1487 1489 1490 1492 1493 1495 1496 1497 1497 1497 1497 1498 1500 1502 1504 1505 1506 1507 1509 1511 1513 1514 1515 1517 1518 1520 1521 1523 1524 1526 1529 1531 1533 1535 1537 1537 1538 1540
1499 1497 1496 1495 1493 1492 1491 1490 1489 1488 1487 1486 1485 1484 1483 1482 1482 1482 1482 1482 1483 1483 1483 1484 1485 1486 1489 1491 1492 1493 1494 1495 1496 1497 1497 1497 1498 1500 1502 1503 1504 1505 1507 1508 1510 1511 1513 1515 1516 1518 1519 1521 1522 1524 1525 1527 1530 1532 1535 1536 1536 1538 1539
1499 1497 1496 1495 1493 1492 1491 1490 1489 1488 1487 1486 1485 1484 1483 1482 1482 1482 1482 1482 1482 1482 1483 1484 1485 1486 1488 1491 1493 1494 1494 1495 1496 1496 1497 1498 1498 1500 1501 1502 1504 1505 1507 1509 1511 1511 1512 1514 1516 1517 1519 1521 1522 1524 1525 1526 1528 1530 1533 1535 1536 1537 1539
1499 1498 1497 1495 1494 1493 1492 1491 1489 1488 1487 1486 1485 1484 1484 1482 1482 1482 1482 1482 1482 1482 1483 1484 1484 1485 1487 1490 1493 1494 1495 1496 1496 1496 1496 1497 1498 1499 1500 1502 1504 1505 1506 1509 1511 1511 1512 1514 1515 1517 1518 1520 1522 1523 1525 1526 1527 1529 1531 1533 1535 1537 1538
1500 1499 1498 1496 1495 1494 1493 1492 1490 1488 1487 1486 1485 1484 1484 1483 1482 1483 1483 1482 1481 1481 1483 1484 1484 1486 1487 1489 1492 1494 1495 1496 1496 1495 1494 1495 1497 1498 1500 1502 1504 1505 1507 1510 1511 1510 1512 1513 1515 1516 1518 1520 1522 1523 1524 1526 1528 1529 1531 1532 1534 1536 1537
1501 1499 1498 1497 1497 1495 1494 1493 1491 1489 1488 1486 1485 1485 1484 1483 1483 1483 1483 1482 1481 1481 1482 1484 1485 1486 1488 1490 1491 1493 1494 1495 1495 1495 1495 1496 1497 1499 1501 1502 1504 1506 1509 1510 1509 1510 1512 1513 1514 1516 1518 1520 1521 1523 1524 1525 1527 1529 1530 1531 1534 1535 1536
1501 1500 1499 1498 1497 1496 1495 1494 1493 1491 1489 1488 1487 1486 1485 1484 1484 1483 1483 1483 1482 1482 1482 1484 1485 1487 1489 1490 1491 1492 1493 1494 1495 1495 1496 1496 1497 1498 1500 1502 1503 1506 1509 1510 1509 1509 1511 1511 1513 1516 1518 1520 1521 1523 1524 1526 1527 1529 1530 1531 1533 1534 1535
1502 1501 1500 1499 1498 1497 1497 1496 1495 1494 1492 1491 1490 1489 1488 1487 1486 1485 1484 1484 1484 1484 1484 1485 1486 1489 1490 1492 1492 1492 1493 1495 1495 1496 1496 1496 1497 1498 1501 1503 1504 1507 1509 1510 1509 1509 1510 1511 1514 1516 1518 1520 1521 1523 1525 1526 1527 1528 1530 1531 1532 1533 1534
1503 1502 1501 1500 1499 1499 1498 1498 1497 1496 1495 1494 1493 1492 1491 1490 1489 1488 1487 1486 1486 1486 1486 1486 1487 1490 1492 1493 1493 1494 1494 1495 1496 1496 1496 1497 1499 1500 1502 1504 1506 1507 1509 1510 1510 1511 1511 1513 1515 1516 1518 1520 1521 1523 1524 1526 1527 1528 1529 1530 1531 1532 1533
1504 1503 1502 1501 1501 1500 1500 1499 1499 1498 1497 1496 1495 1495 1494 1493 1493 1491 1490 1489 1488 1488 1488 1488 1490 1493 1494 1493 1494 1495 1495 1496 1497 1498 1498 1500 1501 1503 1504 1506 1507 1508 1510 1511 1511 1512 1512 1513 1515 1517 1519 1520 1521 1523 1524 1525 1526 1527 1528 1529 1530 1531 1532
1505 1504 1504 1503 1502 1502 1501 1501 1501 1500 1499 1499 1498 1498 1497 1496 1496 1495 1494 1493 1491 1491 1491 1491 1493 1495 1495 1495 1496 1497 1498 1498 1500 1501 1502 1503 1504 1505 1506 1507 1508 1509 1511 1511 1511 1511 1512 1513 1515 1517 1519 1520 1521 1523 1524 1525 1526 1526 1527 1528 1529 1530 1531
1506 1505 1505 1504 1504 1504 1503 1503 1502 1502 1501 1501 1500 1500 1499 1499 1498 1497 1497 1495 1494 1494 1494 1494 1496 1498 1498 1498 1499 1500 1501 1501 1502 1503 1504 1505 1507 1507 1507 1507 1508 1510 1512 1511 1511 1512 1513 1513 1514 1516 1518 1519 1521 1523 1524 1525 1525 1526 1527 1528 1529 1530 1530
1507 1506 1506 1506 1506 1505 1505 1505 1504 1504 1503 1503 1502 1502 1501 1500 1500 1499 1499 1498 1497 1497 1498 1498 1499 1500 1501 1501 1502 1503 1503 1504 1505 1505 1506 1508 1509 1509 1509 1508 1509 1511 1513 1513 1513 1513 1514 1514 1515 1517 1518 1519 1521 1522 1524 1525 1526 1526 1527 1527 1528 1529 1529
1509 1508 1508 1508 1507 1507 1506 1506 1506 1506 1505 1505 1504 1504 1503 1502 1502 1501 1501 1501 1501 1501 1501 1501 1502 1503 1503 1504 1504 1505 1505 1506 1507 1508 1509 1510 1511 1511 1511 1511 1511 1513 1514 1515 1515 1515 1516 1515 1515 1517 1519 1520 1521 1522 1524 1525 1526 1526 1527 1528 1528 1529 1528
1510 1510 1510 1510 1509 1509 1508 1508 1508 1508 1508 1507 1506 1506 1505 1505 1505 1504 1504 1504 1504 1504 1504 1504 1505 1506 1506 1506 1506 1507 1507 1508 1509 1510 1510 1511 1512 1513 1513 1513 1514 1515 1516 1516 1517 1518 1518 1517 1517 1518 1519 1520 1521 1523 1524 1525 1526 1527 1528 1528 1528 1529 1528
1514 1513 1513 1513 1512 1511 1511 1510 1510 1510 1510 1509 1508 1508 1508 1508 1508 1507 1507 1508 1508 1508 1508 1507 1508 1508 1508 1508 1509 1509 1509 1510 1510 1511 1511 1512 1513 1514 1514 1515 1516 1517 1517 1518 1518 1519 1519 1519 1518 1519 1520 1521 1521 1522 1523 1525 1526 1527 1527 1528 1529 1529 1529